UAL1158 KLAX-PHNL

Flight info

Callsign UAL1158
Flight time 5h 29m
Altitude 36000
Route SUMMR2 DINTY DUETS R576 DUSAC/N0482F380 R576 DENNS INOYI1
Aircraft B77W/H-SDE1E2E3FGHIJ2J3J4J5M1RWXY/LB1D1

Departure

Time 2026-05-04 18:29
Airport Los Angeles International Airport (KLAX)

Arrival

Time 2026-05-04 23:58
Airport Daniel K. Inouye International Airport (PHNL)
Time Latitude Longitude Altitude Speed Heading
2026-05-04 18:02 33.94009 -118.40138 128 ft 0 kts 312°
2026-05-04 18:19 33.94006 -118.40134 125 ft 0 kts 312°
2026-05-04 18:20 33.93996 -118.40121 125 ft 2 kts 309°
2026-05-04 18:20 33.93988 -118.40106 125 ft 2 kts 302°
2026-05-04 18:20 33.93980 -118.40091 124 ft 2 kts 297°
2026-05-04 18:20 33.93974 -118.40074 124 ft 2 kts 291°
2026-05-04 18:21 33.93969 -118.40057 124 ft 2 kts 286°
2026-05-04 18:21 33.93966 -118.40041 123 ft 2 kts 281°
2026-05-04 18:21 33.93964 -118.40022 123 ft 2 kts 276°
2026-05-04 18:21 33.93963 -118.40005 123 ft 2 kts 270°
2026-05-04 18:22 33.93963 -118.39986 122 ft 2 kts 265°
2026-05-04 18:22 33.93964 -118.39979 122 ft 0 kts 263°
2026-05-04 18:24 33.93962 -118.39994 122 ft 4 kts 263°
2026-05-04 18:24 33.93959 -118.40036 123 ft 3 kts 264°
2026-05-04 18:24 33.93955 -118.40056 124 ft 0 kts 236°
2026-05-04 18:24 33.93936 -118.40061 124 ft 4 kts 179°
2026-05-04 18:25 33.93910 -118.40057 124 ft 3 kts 172°
2026-05-04 18:25 33.93891 -118.40047 123 ft 6 kts 137°
2026-05-04 18:25 33.93883 -118.39972 122 ft 12 kts 83°
2026-05-04 18:25 33.93895 -118.39851 120 ft 16 kts 84°
2026-05-04 18:26 33.93911 -118.39693 117 ft 20 kts 84°
2026-05-04 18:26 33.93931 -118.39511 116 ft 23 kts 83°
2026-05-04 18:26 33.93951 -118.39303 113 ft 26 kts 83°
2026-05-04 18:26 33.93974 -118.39074 111 ft 27 kts 83°
2026-05-04 18:27 33.93996 -118.38848 110 ft 26 kts 83°
2026-05-04 18:27 33.94019 -118.38638 110 ft 24 kts 83°
2026-05-04 18:27 33.94038 -118.38438 108 ft 23 kts 83°
2026-05-04 18:27 33.94057 -118.38246 106 ft 22 kts 83°
2026-05-04 18:28 33.94075 -118.38087 106 ft 14 kts 86°
2026-05-04 18:28 33.94041 -118.38007 106 ft 8 kts 167°
2026-05-04 18:28 33.93995 -118.38017 106 ft 6 kts 234°
2026-05-04 18:28 33.93981 -118.38077 106 ft 14 kts 261°
2026-05-04 18:29 33.93938 -118.38477 109 ft 80 kts 263°
2026-05-04 18:29 33.93842 -118.39383 114 ft 137 kts 263°
2026-05-04 18:29 33.93713 -118.40655 411 ft 160 kts 261°
2026-05-04 18:29 33.93553 -118.42034 884 ft 175 kts 261°
2026-05-04 18:30 33.93254 -118.45101 1984 ft 201 kts 262°
2026-05-04 18:30 33.93086 -118.46835 2456 ft 220 kts 263°
2026-05-04 18:30 33.92934 -118.48750 2987 ft 238 kts 264°
2026-05-04 18:31 33.92771 -118.50781 3572 ft 253 kts 264°
2026-05-04 18:31 33.92600 -118.52922 4402 ft 259 kts 264°
2026-05-04 18:31 33.92425 -118.55060 5217 ft 263 kts 264°
2026-05-04 18:31 33.92240 -118.57263 6036 ft 267 kts 264°
2026-05-04 18:32 33.92058 -118.59480 6825 ft 271 kts 264°
2026-05-04 18:32 33.91862 -118.61742 7619 ft 274 kts 264°
2026-05-04 18:32 33.91760 -118.64008 8408 ft 277 kts 269°
2026-05-04 18:32 33.91750 -118.66317 9196 ft 279 kts 270°
2026-05-04 18:33 33.91753 -118.68640 9958 ft 282 kts 269°
2026-05-04 18:33 33.91747 -118.71025 10556 ft 293 kts 269°
2026-05-04 18:33 33.91740 -118.73531 11029 ft 308 kts 269°
2026-05-04 18:33 33.91730 -118.76148 11543 ft 321 kts 269°
2026-05-04 18:34 33.91719 -118.78902 12084 ft 335 kts 269°
2026-05-04 18:34 33.91707 -118.81742 12639 ft 348 kts 268°
2026-05-04 18:34 33.91705 -118.84712 13220 ft 361 kts 270°
2026-05-04 18:34 33.91798 -118.87782 13817 ft 373 kts 270°
2026-05-04 18:35 33.91905 -118.90903 14546 ft 380 kts 270°
2026-05-04 18:35 33.92005 -118.94097 15404 ft 383 kts 270°
2026-05-04 18:35 33.92117 -118.97311 16271 ft 387 kts 272°
2026-05-04 18:35 33.92538 -119.00481 17094 ft 393 kts 280°
2026-05-04 18:36 33.93410 -119.03616 17887 ft 401 kts 289°
2026-05-04 18:36 33.94715 -119.06581 18650 ft 408 kts 296°
2026-05-04 18:36 33.96237 -119.09518 19421 ft 412 kts 296°
2026-05-04 18:36 33.97761 -119.12438 20170 ft 416 kts 296°
2026-05-04 18:37 33.99295 -119.15372 20908 ft 420 kts 297°
2026-05-04 18:37 34.01111 -119.18171 21638 ft 431 kts 306°
2026-05-04 18:37 34.03345 -119.20672 22316 ft 444 kts 314°
2026-05-04 18:37 34.05846 -119.22881 22953 ft 452 kts 317°
2026-05-04 18:38 34.08451 -119.25103 23591 ft 457 kts 317°
2026-05-04 18:38 34.11026 -119.27302 24205 ft 462 kts 316°
2026-05-04 18:38 34.13670 -119.29567 24782 ft 467 kts 316°
2026-05-04 18:38 34.16309 -119.31831 25363 ft 471 kts 316°
2026-05-04 18:39 34.19004 -119.34149 25956 ft 475 kts 315°
2026-05-04 18:39 34.21713 -119.36482 26526 ft 480 kts 315°
2026-05-04 18:39 34.24424 -119.38814 27044 ft 484 kts 315°
2026-05-04 18:39 34.27174 -119.41183 27537 ft 489 kts 314°
2026-05-04 18:40 34.29964 -119.43587 28026 ft 494 kts 314°
2026-05-04 18:40 34.32655 -119.46122 28506 ft 488 kts 307°
2026-05-04 18:40 34.34950 -119.49008 28995 ft 478 kts 298°
2026-05-04 18:40 34.36864 -119.52257 29529 ft 466 kts 290°
2026-05-04 18:41 34.38319 -119.55704 30229 ft 452 kts 282°
2026-05-04 18:41 34.39321 -119.59194 31014 ft 435 kts 275°
2026-05-04 18:41 34.39914 -119.62688 31810 ft 420 kts 268°
2026-05-04 18:41 34.40136 -119.66125 32588 ft 406 kts 261°
2026-05-04 18:42 34.40020 -119.69469 33443 ft 393 kts 256°
2026-05-04 18:42 34.39788 -119.72736 34291 ft 385 kts 256°
2026-05-04 18:42 34.39558 -119.75891 35077 ft 380 kts 256°
2026-05-04 18:42 34.39328 -119.79069 35796 ft 377 kts 255°
2026-05-04 18:43 34.39098 -119.82210 36195 ft 379 kts 255°
2026-05-04 18:43 34.38652 -119.88523 36169 ft 372 kts 256°
2026-05-04 18:44 34.38203 -119.94710 36155 ft 370 kts 256°
2026-05-04 18:44 34.37750 -120.00904 36040 ft 368 kts 256°
2026-05-04 18:45 34.37299 -120.07058 36027 ft 370 kts 256°
2026-05-04 18:45 34.36842 -120.13282 36051 ft 370 kts 256°
2026-05-04 18:46 34.36383 -120.19485 36053 ft 371 kts 256°
2026-05-04 18:46 34.35920 -120.25708 36055 ft 372 kts 256°
2026-05-04 18:47 34.35455 -120.31921 36051 ft 372 kts 256°
2026-05-04 18:47 34.34987 -120.38118 36045 ft 373 kts 256°
2026-05-04 18:48 34.34415 -120.44337 36046 ft 369 kts 251°
2026-05-04 18:48 34.32910 -120.50194 36047 ft 361 kts 241°
2026-05-04 18:49 34.30761 -120.55688 36048 ft 362 kts 240°
2026-05-04 18:49 34.28604 -120.61152 36049 ft 363 kts 240°
2026-05-04 18:50 34.26427 -120.66656 36064 ft 364 kts 240°
2026-05-04 18:50 34.24241 -120.72172 36070 ft 365 kts 240°
2026-05-04 18:51 34.22033 -120.77734 36069 ft 366 kts 240°
2026-05-04 18:51 34.19823 -120.83289 36067 ft 368 kts 240°
2026-05-04 18:52 34.17603 -120.88862 36065 ft 369 kts 240°
2026-05-04 18:52 34.15379 -120.94435 36063 ft 371 kts 240°
2026-05-04 18:53 34.13133 -121.00056 36064 ft 372 kts 240°
2026-05-04 18:53 34.10893 -121.05650 36064 ft 374 kts 240°
2026-05-04 18:54 34.08619 -121.11322 36062 ft 375 kts 240°
2026-05-04 18:54 34.06352 -121.16966 36059 ft 376 kts 240°
2026-05-04 18:55 34.04081 -121.22633 36063 ft 377 kts 240°
2026-05-04 18:55 34.00642 -121.31177 36057 ft 379 kts 240°
2026-05-04 18:56 33.98332 -121.36884 36060 ft 380 kts 240°
2026-05-04 18:56 33.96024 -121.42577 36058 ft 377 kts 240°
2026-05-04 18:57 33.93733 -121.48212 36054 ft 374 kts 240°
2026-05-04 18:57 33.91430 -121.53877 36050 ft 378 kts 240°
2026-05-04 18:58 33.89109 -121.59576 36069 ft 379 kts 240°
2026-05-04 18:58 33.86786 -121.65282 36072 ft 379 kts 239°
2026-05-04 18:59 33.84464 -121.70985 36092 ft 380 kts 240°
2026-05-04 18:59 33.82133 -121.76706 36094 ft 380 kts 239°
2026-05-04 19:00 33.79791 -121.82425 36090 ft 382 kts 239°
2026-05-04 19:00 33.77450 -121.88104 36088 ft 382 kts 239°
2026-05-04 19:01 33.75091 -121.93831 36089 ft 383 kts 239°
2026-05-04 19:01 33.72741 -121.99550 36083 ft 383 kts 239°
2026-05-04 19:02 33.70359 -122.05299 36086 ft 383 kts 240°
2026-05-04 19:02 33.68005 -122.11032 36081 ft 384 kts 239°
2026-05-04 19:03 33.65648 -122.16733 36081 ft 384 kts 240°
2026-05-04 19:03 33.63283 -122.22452 36081 ft 384 kts 239°
2026-05-04 19:04 33.60908 -122.28168 36077 ft 383 kts 239°
2026-05-04 19:04 33.58525 -122.33871 36076 ft 383 kts 240°
2026-05-04 19:05 33.56153 -122.39580 36078 ft 383 kts 240°
2026-05-04 19:05 33.53771 -122.45297 36074 ft 383 kts 239°
2026-05-04 19:06 33.51405 -122.50976 36071 ft 384 kts 240°
2026-05-04 19:06 33.49015 -122.56699 36071 ft 384 kts 241°
2026-05-04 19:07 33.47334 -122.62843 36069 ft 392 kts 250°
2026-05-04 19:07 33.46053 -122.69192 36084 ft 392 kts 250°
2026-05-04 19:08 33.44771 -122.75494 36086 ft 392 kts 250°
2026-05-04 19:08 33.43468 -122.81816 36086 ft 392 kts 249°
2026-05-04 19:09 33.42156 -122.88118 36080 ft 392 kts 250°
2026-05-04 19:09 33.40847 -122.94430 36079 ft 393 kts 250°
2026-05-04 19:10 33.39525 -123.00785 36079 ft 394 kts 250°
2026-05-04 19:10 33.38203 -123.07113 36078 ft 394 kts 250°
2026-05-04 19:11 33.36870 -123.13477 36077 ft 395 kts 250°
2026-05-04 19:11 33.35539 -123.19810 36075 ft 396 kts 250°
2026-05-04 19:12 33.33524 -123.29366 36074 ft 397 kts 250°
2026-05-04 19:13 33.32165 -123.35786 36073 ft 398 kts 250°
2026-05-04 19:13 33.30807 -123.42190 36072 ft 399 kts 250°
2026-05-04 19:14 33.29443 -123.48600 36071 ft 400 kts 250°
2026-05-04 19:14 33.28072 -123.55027 36070 ft 401 kts 250°
2026-05-04 19:15 33.26694 -123.61468 36069 ft 401 kts 250°
2026-05-04 19:15 33.25312 -123.67918 36082 ft 401 kts 250°
2026-05-04 19:16 33.23920 -123.74390 36083 ft 401 kts 250°
2026-05-04 19:16 33.22532 -123.80823 36083 ft 402 kts 250°
2026-05-04 19:17 33.21140 -123.87260 36081 ft 402 kts 250°
2026-05-04 19:17 33.19741 -123.93713 36079 ft 402 kts 250°
2026-05-04 19:18 33.18343 -124.00143 36078 ft 402 kts 250°
2026-05-04 19:18 33.16936 -124.06595 36069 ft 405 kts 250°
2026-05-04 19:19 33.15513 -124.13104 36068 ft 409 kts 251°
2026-05-04 19:19 33.14069 -124.19694 36075 ft 411 kts 251°
2026-05-04 19:20 33.12623 -124.26275 36076 ft 411 kts 251°
2026-05-04 19:20 33.11177 -124.32835 36073 ft 411 kts 251°
2026-05-04 19:21 33.09723 -124.39419 36069 ft 411 kts 251°
2026-05-04 19:21 33.08267 -124.45988 36064 ft 411 kts 251°
2026-05-04 19:22 33.06809 -124.52550 36062 ft 411 kts 251°
2026-05-04 19:22 33.05333 -124.59161 36060 ft 412 kts 251°
2026-05-04 19:23 33.03864 -124.65725 36059 ft 412 kts 250°
2026-05-04 19:23 33.02386 -124.72308 36069 ft 412 kts 250°
2026-05-04 19:24 33.00901 -124.78908 36067 ft 413 kts 250°
2026-05-04 19:24 32.99413 -124.85499 36066 ft 413 kts 250°
2026-05-04 19:25 32.97919 -124.92104 36065 ft 414 kts 251°
2026-05-04 19:25 32.96421 -124.98707 36063 ft 415 kts 251°
2026-05-04 19:26 32.94921 -125.05299 36062 ft 415 kts 251°
2026-05-04 19:26 32.93412 -125.11916 36061 ft 416 kts 251°
2026-05-04 19:27 32.91900 -125.18529 36060 ft 416 kts 251°
2026-05-04 19:27 32.90376 -125.25175 36059 ft 417 kts 251°
2026-05-04 19:28 32.88849 -125.31814 36073 ft 418 kts 251°
2026-05-04 19:28 32.87318 -125.38456 36076 ft 418 kts 251°
2026-05-04 19:29 32.85768 -125.45162 36081 ft 419 kts 251°
2026-05-04 19:29 32.84228 -125.51811 36084 ft 419 kts 251°
2026-05-04 19:30 32.82686 -125.58450 36083 ft 419 kts 251°
2026-05-04 19:30 32.81132 -125.65118 36078 ft 419 kts 251°
2026-05-04 19:31 32.79581 -125.71757 36079 ft 420 kts 251°
2026-05-04 19:31 32.78015 -125.78447 36072 ft 420 kts 251°
2026-05-04 19:32 32.76447 -125.85127 36070 ft 420 kts 251°
2026-05-04 19:32 32.74882 -125.91775 36069 ft 420 kts 251°
2026-05-04 19:33 32.73311 -125.98432 36067 ft 420 kts 251°
2026-05-04 19:33 32.71737 -126.05084 36066 ft 420 kts 251°
2026-05-04 19:34 32.70153 -126.11758 36064 ft 420 kts 251°
2026-05-04 19:34 32.68573 -126.18400 36060 ft 422 kts 251°
2026-05-04 19:35 32.66966 -126.25137 36058 ft 425 kts 251°
2026-05-04 19:35 32.65354 -126.31880 36061 ft 426 kts 251°
2026-05-04 19:36 32.63750 -126.38577 36060 ft 426 kts 251°
2026-05-04 19:36 32.62121 -126.45355 36058 ft 426 kts 251°
2026-05-04 19:37 32.60502 -126.52076 36057 ft 427 kts 251°
2026-05-04 19:37 32.58874 -126.58813 36056 ft 427 kts 252°
2026-05-04 19:38 32.57233 -126.65587 36056 ft 428 kts 251°
2026-05-04 19:38 32.55594 -126.72336 36065 ft 429 kts 251°
2026-05-04 19:39 32.53943 -126.79121 36064 ft 430 kts 251°
2026-05-04 19:39 32.52293 -126.85881 36063 ft 430 kts 252°
2026-05-04 19:40 32.50631 -126.92671 36062 ft 430 kts 252°
2026-05-04 19:40 32.48960 -126.99485 36061 ft 431 kts 252°
2026-05-04 19:41 32.47277 -127.06328 36060 ft 432 kts 252°
2026-05-04 19:41 32.45598 -127.13137 36059 ft 433 kts 252°
2026-05-04 19:42 32.43911 -127.19959 36057 ft 434 kts 252°
2026-05-04 19:42 32.42208 -127.26832 36056 ft 435 kts 252°
2026-05-04 19:43 32.40508 -127.33674 36055 ft 436 kts 252°
2026-05-04 19:43 32.38797 -127.40545 36054 ft 436 kts 253°
2026-05-04 19:44 32.37081 -127.47416 36053 ft 436 kts 253°
2026-05-04 19:44 32.35370 -127.54250 36055 ft 437 kts 253°
2026-05-04 19:45 32.33638 -127.61145 36059 ft 437 kts 253°
2026-05-04 19:45 32.31911 -127.68007 36071 ft 437 kts 253°
2026-05-04 19:46 32.30167 -127.74921 36072 ft 437 kts 253°
2026-05-04 19:46 32.28439 -127.81755 36071 ft 437 kts 253°
2026-05-04 19:47 32.26686 -127.88667 36070 ft 437 kts 253°
2026-05-04 19:47 32.24949 -127.95502 36069 ft 437 kts 253°
2026-05-04 19:48 32.23196 -128.02377 36068 ft 437 kts 253°
2026-05-04 19:48 32.21437 -128.09262 36068 ft 437 kts 253°
2026-05-04 19:49 32.19679 -128.16126 36067 ft 438 kts 253°
2026-05-04 19:49 32.17928 -128.22943 36068 ft 438 kts 253°
2026-05-04 19:50 32.16159 -128.29817 36073 ft 438 kts 253°
2026-05-04 19:50 32.14383 -128.36697 36076 ft 438 kts 253°
2026-05-04 19:51 32.12606 -128.43565 36075 ft 439 kts 253°
2026-05-04 19:51 32.10838 -128.50388 36075 ft 440 kts 253°
2026-05-04 19:52 32.09051 -128.57260 36075 ft 440 kts 253°
2026-05-04 19:52 32.07250 -128.64168 36075 ft 442 kts 253°
2026-05-04 19:53 32.05442 -128.71089 36085 ft 443 kts 253°
2026-05-04 19:53 32.03632 -128.77998 36086 ft 444 kts 253°
2026-05-04 19:54 32.01806 -128.84955 36085 ft 445 kts 253°
2026-05-04 19:54 31.99978 -128.91899 36085 ft 446 kts 254°
2026-05-04 19:55 31.98125 -128.98923 36085 ft 448 kts 254°
2026-05-04 19:55 31.96279 -129.05902 36083 ft 446 kts 254°
2026-05-04 19:56 31.94434 -129.12857 36083 ft 443 kts 254°
2026-05-04 19:56 31.92597 -129.19768 36083 ft 443 kts 255°
2026-05-04 19:57 31.90755 -129.26683 36082 ft 444 kts 255°
2026-05-04 19:57 31.88905 -129.33607 36080 ft 445 kts 255°
2026-05-04 19:58 31.87051 -129.40532 36078 ft 446 kts 255°
2026-05-04 19:58 31.85179 -129.47507 36077 ft 447 kts 255°
2026-05-04 19:59 31.83310 -129.54454 36076 ft 448 kts 256°
2026-05-04 19:59 31.81426 -129.61440 36075 ft 449 kts 256°
2026-05-04 20:00 31.79541 -129.68410 36083 ft 450 kts 255°
2026-05-04 20:00 31.77622 -129.75493 36083 ft 451 kts 255°
2026-05-04 20:01 31.75723 -129.82477 36082 ft 451 kts 255°
2026-05-04 20:01 31.73812 -129.89494 36080 ft 451 kts 256°
2026-05-04 20:02 31.71897 -129.96507 36076 ft 452 kts 256°
2026-05-04 20:02 31.69974 -130.03537 36073 ft 452 kts 256°
2026-05-04 20:03 31.68047 -130.10561 36072 ft 452 kts 256°
2026-05-04 20:03 31.66109 -130.17606 36074 ft 453 kts 256°
2026-05-04 20:04 31.64178 -130.24611 36074 ft 453 kts 256°
2026-05-04 20:04 31.62248 -130.31595 36072 ft 452 kts 256°
2026-05-04 20:05 31.60314 -130.38577 36071 ft 451 kts 256°
2026-05-04 20:05 31.58376 -130.45558 36072 ft 451 kts 256°
2026-05-04 20:06 31.56440 -130.52513 36071 ft 450 kts 256°
2026-05-04 20:06 31.54501 -130.59465 36071 ft 450 kts 256°
2026-05-04 20:07 31.52545 -130.66460 36075 ft 449 kts 256°
2026-05-04 20:07 31.50601 -130.73395 36081 ft 449 kts 256°
2026-05-04 20:08 31.48656 -130.80316 36081 ft 448 kts 256°
2026-05-04 20:08 31.46703 -130.87253 36080 ft 447 kts 256°
2026-05-04 20:09 31.44763 -130.94127 36080 ft 447 kts 257°
2026-05-04 20:09 31.42813 -131.01019 36078 ft 447 kts 257°
2026-05-04 20:10 31.40873 -131.07863 36075 ft 446 kts 257°
2026-05-04 20:10 31.38919 -131.14737 36072 ft 446 kts 257°
2026-05-04 20:11 31.36957 -131.21622 36072 ft 446 kts 257°
2026-05-04 20:11 31.35001 -131.28476 36071 ft 445 kts 257°
2026-05-04 20:12 31.33042 -131.35318 36070 ft 445 kts 257°
2026-05-04 20:12 31.31072 -131.42189 36069 ft 445 kts 257°
2026-05-04 20:13 31.29112 -131.49010 36069 ft 445 kts 258°
2026-05-04 20:13 31.27144 -131.55839 36067 ft 445 kts 258°
2026-05-04 20:14 31.25164 -131.62694 36067 ft 446 kts 258°
2026-05-04 20:14 31.23188 -131.69522 36076 ft 446 kts 257°
2026-05-04 20:15 31.21205 -131.76363 36076 ft 446 kts 257°
2026-05-04 20:15 31.19218 -131.83195 36074 ft 445 kts 257°
2026-05-04 20:16 31.17231 -131.90015 36074 ft 445 kts 258°
2026-05-04 20:16 31.15239 -131.96838 36072 ft 445 kts 258°
2026-05-04 20:17 31.13242 -132.03661 36071 ft 444 kts 258°
2026-05-04 20:17 31.11242 -132.10480 36085 ft 444 kts 258°
2026-05-04 20:18 31.09255 -132.17238 36085 ft 443 kts 258°
2026-05-04 20:18 31.07260 -132.24005 36069 ft 442 kts 258°
2026-05-04 20:19 31.05251 -132.30806 36068 ft 443 kts 258°
2026-05-04 20:19 31.03253 -132.37550 36069 ft 442 kts 258°
2026-05-04 20:20 31.01241 -132.44331 36068 ft 441 kts 258°
2026-05-04 20:20 30.99241 -132.51056 36068 ft 440 kts 258°
2026-05-04 20:21 30.97237 -132.57777 36068 ft 440 kts 258°
2026-05-04 20:21 30.94233 -132.67831 36079 ft 440 kts 258°
2026-05-04 20:22 30.92220 -132.74548 36081 ft 440 kts 258°
2026-05-04 20:22 30.90200 -132.81274 36081 ft 439 kts 258°
2026-05-04 20:23 30.88175 -132.88002 36067 ft 439 kts 258°
2026-05-04 20:23 30.86161 -132.94684 36070 ft 439 kts 258°
2026-05-04 20:24 30.84138 -133.01375 36074 ft 439 kts 258°
2026-05-04 20:24 30.82127 -133.08014 36074 ft 439 kts 258°
2026-05-04 20:25 30.80093 -133.14717 36074 ft 439 kts 258°
2026-05-04 20:25 30.78064 -133.21388 36080 ft 438 kts 258°
2026-05-04 20:26 30.76045 -133.28011 36085 ft 438 kts 258°
2026-05-04 20:26 30.74007 -133.34683 36085 ft 438 kts 258°
2026-05-04 20:27 30.71969 -133.41342 36084 ft 438 kts 258°
2026-05-04 20:27 30.69928 -133.47996 36083 ft 437 kts 258°
2026-05-04 20:28 30.67897 -133.54605 36082 ft 437 kts 258°
2026-05-04 20:28 30.65848 -133.61261 36082 ft 437 kts 258°
2026-05-04 20:29 30.63799 -133.67899 36094 ft 437 kts 257°
2026-05-04 20:29 30.61742 -133.74550 36095 ft 437 kts 257°
2026-05-04 20:30 30.59693 -133.81161 36095 ft 437 kts 257°
2026-05-04 20:30 30.57632 -133.87797 36094 ft 437 kts 257°
2026-05-04 20:31 30.55577 -133.94403 36092 ft 437 kts 257°
2026-05-04 20:31 30.53517 -134.01010 36092 ft 436 kts 257°
2026-05-04 20:32 30.51452 -134.07616 36096 ft 436 kts 257°
2026-05-04 20:32 30.49387 -134.14210 36094 ft 437 kts 257°
2026-05-04 20:33 30.47307 -134.20842 36082 ft 436 kts 257°
2026-05-04 20:33 30.45235 -134.27435 36078 ft 436 kts 257°
2026-05-04 20:34 30.43160 -134.34019 36077 ft 436 kts 257°
2026-05-04 20:34 30.41072 -134.40636 36076 ft 436 kts 257°
2026-05-04 20:35 30.38989 -134.47221 36077 ft 436 kts 257°
2026-05-04 20:35 30.36902 -134.53809 36076 ft 437 kts 257°
2026-05-04 20:36 30.34812 -134.60388 36076 ft 437 kts 257°
2026-05-04 20:36 30.32722 -134.66959 36085 ft 438 kts 256°
2026-05-04 20:37 30.30615 -134.73567 36090 ft 438 kts 256°
2026-05-04 20:37 30.28506 -134.80170 36089 ft 439 kts 256°
2026-05-04 20:38 30.26391 -134.86777 36088 ft 440 kts 256°
2026-05-04 20:38 30.24271 -134.93387 36088 ft 440 kts 256°
2026-05-04 20:39 30.22143 -135.00009 36087 ft 440 kts 256°
2026-05-04 20:39 30.20008 -135.06639 36087 ft 441 kts 256°
2026-05-04 20:40 30.17874 -135.13249 36086 ft 442 kts 256°
2026-05-04 20:40 30.15725 -135.19897 36086 ft 442 kts 256°
2026-05-04 20:41 30.13576 -135.26532 36085 ft 443 kts 256°
2026-05-04 20:41 30.11406 -135.33211 36085 ft 443 kts 256°
2026-05-04 20:42 30.09249 -135.39844 36084 ft 444 kts 255°
2026-05-04 20:42 30.07069 -135.46533 36087 ft 444 kts 255°
2026-05-04 20:43 30.04897 -135.53186 36090 ft 444 kts 255°
2026-05-04 20:43 30.02723 -135.59834 36091 ft 444 kts 255°
2026-05-04 20:44 30.00528 -135.66528 36096 ft 445 kts 255°
2026-05-04 20:44 29.98345 -135.73173 36101 ft 446 kts 255°
2026-05-04 20:45 29.96153 -135.79835 36100 ft 446 kts 254°
2026-05-04 20:45 29.93945 -135.86530 36098 ft 445 kts 254°
2026-05-04 20:46 29.91740 -135.93201 36095 ft 445 kts 254°
2026-05-04 20:46 29.89529 -135.99878 36091 ft 445 kts 254°
2026-05-04 20:47 29.87319 -136.06541 36085 ft 445 kts 254°
2026-05-04 20:47 29.85114 -136.13174 36084 ft 445 kts 254°
2026-05-04 20:48 29.82904 -136.19812 36085 ft 445 kts 254°
2026-05-04 20:48 29.80679 -136.26480 36085 ft 445 kts 254°
2026-05-04 20:49 29.78475 -136.33073 36085 ft 446 kts 254°
2026-05-04 20:49 29.76236 -136.39755 36084 ft 446 kts 254°
2026-05-04 20:50 29.74012 -136.46384 36084 ft 446 kts 254°
2026-05-04 20:50 29.71775 -136.53035 36084 ft 446 kts 254°
2026-05-04 20:51 29.69542 -136.59660 36084 ft 446 kts 254°
2026-05-04 20:51 29.67304 -136.66290 36088 ft 446 kts 253°
2026-05-04 20:52 29.65058 -136.72931 36095 ft 446 kts 253°
2026-05-04 20:52 29.62816 -136.79549 36095 ft 446 kts 253°
2026-05-04 20:53 29.60564 -136.86182 36094 ft 446 kts 253°
2026-05-04 20:53 29.58306 -136.92822 36094 ft 447 kts 253°
2026-05-04 20:54 29.56041 -136.99463 36094 ft 447 kts 253°
2026-05-04 20:54 29.53788 -137.06062 36093 ft 447 kts 253°
2026-05-04 20:55 29.51524 -137.12680 36093 ft 447 kts 253°
2026-05-04 20:55 29.49253 -137.19305 36092 ft 447 kts 253°
2026-05-04 20:56 29.46981 -137.25925 36092 ft 447 kts 253°
2026-05-04 20:56 29.44701 -137.32548 36092 ft 447 kts 253°
2026-05-04 20:57 29.42420 -137.39165 36091 ft 447 kts 253°
2026-05-04 20:57 29.40125 -137.45811 36091 ft 448 kts 253°
2026-05-04 20:58 29.37833 -137.52438 36090 ft 448 kts 253°
2026-05-04 20:58 29.35541 -137.59049 36090 ft 448 kts 253°
2026-05-04 20:59 29.33221 -137.65729 36091 ft 449 kts 252°
2026-05-04 20:59 29.30907 -137.72378 36099 ft 449 kts 252°
2026-05-04 21:00 29.28596 -137.79005 36099 ft 449 kts 252°
2026-05-04 21:00 29.26294 -137.85597 36099 ft 449 kts 252°
2026-05-04 21:01 29.23965 -137.92258 36097 ft 449 kts 252°
2026-05-04 21:01 29.21643 -137.98877 36097 ft 449 kts 252°
2026-05-04 21:02 29.19315 -138.05505 36102 ft 450 kts 252°
2026-05-04 21:02 29.16990 -138.12114 36103 ft 450 kts 252°
2026-05-04 21:03 29.14664 -138.18712 36096 ft 450 kts 252°
2026-05-04 21:03 29.12319 -138.25352 36094 ft 450 kts 252°
2026-05-04 21:04 29.09969 -138.31992 36095 ft 450 kts 252°
2026-05-04 21:04 29.07632 -138.38583 36095 ft 450 kts 252°
2026-05-04 21:05 29.05286 -138.45190 36095 ft 450 kts 252°
2026-05-04 21:05 29.02937 -138.51791 36095 ft 450 kts 252°
2026-05-04 21:06 29.00567 -138.58440 36095 ft 450 kts 252°
2026-05-04 21:06 28.98206 -138.65051 36095 ft 450 kts 251°
2026-05-04 21:07 28.95850 -138.71639 36104 ft 451 kts 251°
2026-05-04 21:07 28.93485 -138.78235 36104 ft 451 kts 251°
2026-05-04 21:08 28.91099 -138.84880 36104 ft 451 kts 251°
2026-05-04 21:08 28.88738 -138.91447 36098 ft 451 kts 251°
2026-05-04 21:09 28.86347 -138.98080 36097 ft 451 kts 251°
2026-05-04 21:09 28.83960 -139.04692 36097 ft 451 kts 251°
2026-05-04 21:10 28.81576 -139.11285 36115 ft 451 kts 251°
2026-05-04 21:10 28.79188 -139.17874 36117 ft 448 kts 251°
2026-05-04 21:11 28.76825 -139.24385 36090 ft 446 kts 251°
2026-05-04 21:11 28.74442 -139.30939 36085 ft 448 kts 251°
2026-05-04 21:12 28.72073 -139.37444 36091 ft 448 kts 251°
2026-05-04 21:12 28.69678 -139.44005 36092 ft 448 kts 251°
2026-05-04 21:13 28.67295 -139.50503 36092 ft 448 kts 251°
2026-05-04 21:13 28.64899 -139.57025 36092 ft 447 kts 251°
2026-05-04 21:14 28.62495 -139.63562 36090 ft 447 kts 251°
2026-05-04 21:14 28.60095 -139.70071 36098 ft 448 kts 250°
2026-05-04 21:15 28.57694 -139.76572 36098 ft 448 kts 250°
2026-05-04 21:15 28.55279 -139.83099 36091 ft 448 kts 250°
2026-05-04 21:16 28.52867 -139.89604 36083 ft 448 kts 250°
2026-05-04 21:16 28.50445 -139.96133 36082 ft 448 kts 250°
2026-05-04 21:17 28.48023 -140.02646 36083 ft 448 kts 250°
2026-05-04 21:17 28.45582 -140.09201 36083 ft 448 kts 250°
2026-05-04 21:18 28.43166 -140.15675 36085 ft 448 kts 250°
2026-05-04 21:18 28.40734 -140.22183 36085 ft 448 kts 250°
2026-05-04 21:19 28.38292 -140.28705 36083 ft 448 kts 250°
2026-05-04 21:19 28.35852 -140.35208 36082 ft 448 kts 250°
2026-05-04 21:20 28.33404 -140.41724 36083 ft 448 kts 250°
2026-05-04 21:20 28.30974 -140.48183 36083 ft 448 kts 250°
2026-05-04 21:21 28.28523 -140.54681 36083 ft 448 kts 250°
2026-05-04 21:21 28.26062 -140.61197 36083 ft 448 kts 250°
2026-05-04 21:22 28.23609 -140.67680 36090 ft 448 kts 249°
2026-05-04 21:22 28.21156 -140.74153 36092 ft 448 kts 249°
2026-05-04 21:23 28.18706 -140.80606 36088 ft 448 kts 249°
2026-05-04 21:23 28.16231 -140.87115 36065 ft 448 kts 249°
2026-05-04 21:24 28.13778 -140.93558 36042 ft 448 kts 249°
2026-05-04 21:24 28.11310 -141.00026 36039 ft 448 kts 249°
2026-05-04 21:25 28.08849 -141.06465 36042 ft 448 kts 249°
2026-05-04 21:25 28.06369 -141.12941 36043 ft 448 kts 249°
2026-05-04 21:26 28.03890 -141.19406 36042 ft 448 kts 249°
2026-05-04 21:26 28.01421 -141.25835 36042 ft 448 kts 249°
2026-05-04 21:27 27.98937 -141.32291 36041 ft 448 kts 249°
2026-05-04 21:27 27.96460 -141.38716 36041 ft 448 kts 249°
2026-05-04 21:28 27.93974 -141.45155 36035 ft 448 kts 249°
2026-05-04 21:28 27.91485 -141.51594 36033 ft 448 kts 249°
2026-05-04 21:29 27.88991 -141.58034 36042 ft 449 kts 249°
2026-05-04 21:29 27.86488 -141.64485 36045 ft 448 kts 249°
2026-05-04 21:30 27.83989 -141.70912 36051 ft 448 kts 249°
2026-05-04 21:30 27.81466 -141.77394 36051 ft 448 kts 249°
2026-05-04 21:31 27.77710 -141.87025 36050 ft 448 kts 249°
2026-05-04 21:32 27.75193 -141.93466 36050 ft 448 kts 249°
2026-05-04 21:32 27.72686 -141.99867 36049 ft 448 kts 249°
2026-05-04 21:33 27.70179 -142.06261 36049 ft 448 kts 249°
2026-05-04 21:33 27.67658 -142.12677 36049 ft 448 kts 249°
2026-05-04 21:34 27.65138 -142.19084 36049 ft 448 kts 249°
2026-05-04 21:34 27.62612 -142.25493 36049 ft 448 kts 249°
2026-05-04 21:35 27.60074 -142.31923 36051 ft 448 kts 249°
2026-05-04 21:35 27.57546 -142.38316 36052 ft 448 kts 249°
2026-05-04 21:36 27.55016 -142.44705 36051 ft 448 kts 249°
2026-05-04 21:36 27.52466 -142.51132 36051 ft 448 kts 249°
2026-05-04 21:37 27.49936 -142.57501 36051 ft 448 kts 248°
2026-05-04 21:37 27.47386 -142.63911 36050 ft 448 kts 248°
2026-05-04 21:38 27.44841 -142.70297 36059 ft 448 kts 248°
2026-05-04 21:38 27.42287 -142.76694 36060 ft 448 kts 248°
2026-05-04 21:39 27.39740 -142.83063 36060 ft 448 kts 248°
2026-05-04 21:39 27.37194 -142.89421 36059 ft 448 kts 248°
2026-05-04 21:40 27.34640 -142.95789 36059 ft 447 kts 248°
2026-05-04 21:40 27.32078 -143.02164 36059 ft 447 kts 248°
2026-05-04 21:41 27.29525 -143.08508 36059 ft 447 kts 248°
2026-05-04 21:41 27.26954 -143.14888 36059 ft 447 kts 248°
2026-05-04 21:42 27.24394 -143.21228 36059 ft 447 kts 248°
2026-05-04 21:42 27.21819 -143.27597 36059 ft 447 kts 248°
2026-05-04 21:43 27.19257 -143.33925 36059 ft 447 kts 248°
2026-05-04 21:43 27.16682 -143.40273 36059 ft 447 kts 248°
2026-05-04 21:44 27.14112 -143.46600 36058 ft 447 kts 248°
2026-05-04 21:44 27.11523 -143.52962 36058 ft 447 kts 248°
2026-05-04 21:45 27.08934 -143.59315 36058 ft 447 kts 248°
2026-05-04 21:45 27.06345 -143.65659 36059 ft 447 kts 247°
2026-05-04 21:46 27.03764 -143.71973 36067 ft 447 kts 247°
2026-05-04 21:46 27.01161 -143.78331 36067 ft 447 kts 247°
2026-05-04 21:47 26.98570 -143.84650 36067 ft 447 kts 247°
2026-05-04 21:47 26.95991 -143.90929 36065 ft 447 kts 247°
2026-05-04 21:48 26.93394 -143.97244 36064 ft 447 kts 247°
2026-05-04 21:48 26.90780 -144.03587 36063 ft 447 kts 247°
2026-05-04 21:49 26.88188 -144.09869 36062 ft 447 kts 247°
2026-05-04 21:49 26.85572 -144.16200 36061 ft 447 kts 247°
2026-05-04 21:50 26.82973 -144.22481 36061 ft 447 kts 247°
2026-05-04 21:50 26.80367 -144.28769 36064 ft 447 kts 247°
2026-05-04 21:51 26.77748 -144.35075 36064 ft 447 kts 247°
2026-05-04 21:51 26.75134 -144.41367 36063 ft 447 kts 247°
2026-05-04 21:52 26.72519 -144.47646 36063 ft 447 kts 247°
2026-05-04 21:52 26.69906 -144.53914 36064 ft 447 kts 247°
2026-05-04 21:53 26.67285 -144.60188 36064 ft 447 kts 247°
2026-05-04 21:53 26.64645 -144.66499 36069 ft 447 kts 247°
2026-05-04 21:54 26.62033 -144.72734 36073 ft 447 kts 247°
2026-05-04 21:54 26.59392 -144.79030 36074 ft 446 kts 246°
2026-05-04 21:55 26.56770 -144.85271 36074 ft 446 kts 246°
2026-05-04 21:55 26.54128 -144.91548 36073 ft 446 kts 246°
2026-05-04 21:56 26.51483 -144.97823 36073 ft 446 kts 246°
2026-05-04 21:56 26.48842 -145.04080 36073 ft 446 kts 246°
2026-05-04 21:57 26.46202 -145.10326 36073 ft 446 kts 246°
2026-05-04 21:57 26.43570 -145.16542 36073 ft 446 kts 246°
2026-05-04 21:58 26.40935 -145.22759 36073 ft 446 kts 246°
2026-05-04 21:58 26.38281 -145.29009 36073 ft 446 kts 246°
2026-05-04 21:59 26.35637 -145.35225 36073 ft 446 kts 246°
2026-05-04 21:59 26.32978 -145.41469 36073 ft 446 kts 246°
2026-05-04 22:00 26.30318 -145.47708 36073 ft 446 kts 246°
2026-05-04 22:00 26.27651 -145.53952 36072 ft 446 kts 246°
2026-05-04 22:01 26.24998 -145.60153 36072 ft 446 kts 246°
2026-05-04 22:01 26.22339 -145.66365 36092 ft 446 kts 246°
2026-05-04 22:02 26.19658 -145.72613 36121 ft 447 kts 246°
2026-05-04 22:02 26.16990 -145.78824 36137 ft 446 kts 246°
2026-05-04 22:03 26.14317 -145.85037 36144 ft 446 kts 246°
2026-05-04 22:03 26.11632 -145.91266 36144 ft 446 kts 246°
2026-05-04 22:04 26.08952 -145.97479 36143 ft 446 kts 246°
2026-05-04 22:04 26.06274 -146.03676 36142 ft 446 kts 246°
2026-05-04 22:05 26.03588 -146.09882 36142 ft 446 kts 246°
2026-05-04 22:05 26.00898 -146.16090 36142 ft 446 kts 246°
2026-05-04 22:06 25.98181 -146.22360 36442 ft 454 kts 246°
2026-05-04 22:06 25.96832 -146.25470 36959 ft 450 kts 246°
2026-05-04 22:06 25.95474 -146.28600 37443 ft 447 kts 246°
2026-05-04 22:06 25.94132 -146.31689 37764 ft 448 kts 246°
2026-05-04 22:07 25.92770 -146.34825 38052 ft 450 kts 246°
2026-05-04 22:07 25.91412 -146.37947 38227 ft 452 kts 246°
2026-05-04 22:07 25.90050 -146.41077 38284 ft 448 kts 246°
2026-05-04 22:08 25.87369 -146.47227 38251 ft 440 kts 246°
2026-05-04 22:08 25.86040 -146.50275 38127 ft 436 kts 246°
2026-05-04 22:08 25.84726 -146.53285 38106 ft 440 kts 246°
2026-05-04 22:09 25.82051 -146.59407 38108 ft 442 kts 246°
2026-05-04 22:09 25.79372 -146.65532 38129 ft 442 kts 246°
2026-05-04 22:10 25.76675 -146.71686 38137 ft 441 kts 246°
2026-05-04 22:10 25.74012 -146.77757 38144 ft 441 kts 246°
2026-05-04 22:11 25.71317 -146.83891 38142 ft 441 kts 246°
2026-05-04 22:11 25.68638 -146.89978 38135 ft 441 kts 246°
2026-05-04 22:12 25.65959 -146.96059 38136 ft 440 kts 246°
2026-05-04 22:12 25.63267 -147.02161 38137 ft 440 kts 246°
2026-05-04 22:13 25.60566 -147.08272 38137 ft 440 kts 246°
2026-05-04 22:13 25.57877 -147.14349 38137 ft 440 kts 246°
2026-05-04 22:14 25.55194 -147.20404 38136 ft 440 kts 246°
2026-05-04 22:14 25.52488 -147.26504 38136 ft 440 kts 246°
2026-05-04 22:15 25.49789 -147.32579 38135 ft 440 kts 246°
2026-05-04 22:15 25.47099 -147.38625 38135 ft 440 kts 246°
2026-05-04 22:16 25.44398 -147.44687 38134 ft 440 kts 246°
2026-05-04 22:16 25.41684 -147.50771 38134 ft 441 kts 246°
2026-05-04 22:17 25.38968 -147.56850 38133 ft 441 kts 246°
2026-05-04 22:17 25.36260 -147.62901 38132 ft 441 kts 246°
2026-05-04 22:18 25.33544 -147.68968 38141 ft 442 kts 246°
2026-05-04 22:18 25.30810 -147.75061 38144 ft 441 kts 246°
2026-05-04 22:19 25.28090 -147.81117 38146 ft 440 kts 246°
2026-05-04 22:19 25.25380 -147.87141 38145 ft 440 kts 246°
2026-05-04 22:20 25.22649 -147.93204 38144 ft 440 kts 246°
2026-05-04 22:20 25.19918 -147.99260 38143 ft 441 kts 246°
2026-05-04 22:21 25.17199 -148.05278 38141 ft 441 kts 246°
2026-05-04 22:21 25.14458 -148.11340 38138 ft 440 kts 246°
2026-05-04 22:22 25.11733 -148.17357 38138 ft 440 kts 246°
2026-05-04 22:22 25.09008 -148.23367 38139 ft 439 kts 246°
2026-05-04 22:23 25.06267 -148.29405 38139 ft 439 kts 246°
2026-05-04 22:23 25.03547 -148.35388 38137 ft 439 kts 246°
2026-05-04 22:24 25.00801 -148.41420 38137 ft 439 kts 246°
2026-05-04 22:24 24.98080 -148.47388 38136 ft 439 kts 246°
2026-05-04 22:25 24.95334 -148.53401 38136 ft 438 kts 246°
2026-05-04 22:25 24.92608 -148.59367 38135 ft 438 kts 246°
2026-05-04 22:26 24.89851 -148.65390 38135 ft 437 kts 245°
2026-05-04 22:26 24.87102 -148.71388 38145 ft 438 kts 245°
2026-05-04 22:27 24.84361 -148.77362 38146 ft 438 kts 245°
2026-05-04 22:27 24.81631 -148.83302 38146 ft 437 kts 245°
2026-05-04 22:28 24.78886 -148.89270 38145 ft 437 kts 245°
2026-05-04 22:28 24.76145 -148.95221 38143 ft 437 kts 245°
2026-05-04 22:29 24.73398 -149.01175 38142 ft 436 kts 245°
2026-05-04 22:29 24.70656 -149.07111 38141 ft 437 kts 245°
2026-05-04 22:30 24.67907 -149.13054 38139 ft 437 kts 245°
2026-05-04 22:30 24.65159 -149.18990 38135 ft 436 kts 245°
2026-05-04 22:31 24.62401 -149.24937 38132 ft 436 kts 245°
2026-05-04 22:31 24.59644 -149.30876 38130 ft 436 kts 245°
2026-05-04 22:32 24.56903 -149.36772 38129 ft 436 kts 245°
2026-05-04 22:32 24.54143 -149.42700 38128 ft 435 kts 245°
2026-05-04 22:33 24.51392 -149.48604 38127 ft 435 kts 246°
2026-05-04 22:33 24.48632 -149.54518 38126 ft 435 kts 246°
2026-05-04 22:34 24.45878 -149.60413 38125 ft 435 kts 246°
2026-05-04 22:34 24.43129 -149.66289 38130 ft 435 kts 245°
2026-05-04 22:35 24.40357 -149.72208 38137 ft 435 kts 245°
2026-05-04 22:35 24.37603 -149.78079 38136 ft 434 kts 245°
2026-05-04 22:36 24.34847 -149.83949 38134 ft 434 kts 245°
2026-05-04 22:36 24.32095 -149.89801 38133 ft 434 kts 245°
2026-05-04 22:37 24.29328 -149.95676 38133 ft 434 kts 245°
2026-05-04 22:37 24.26563 -150.01541 38132 ft 434 kts 245°
2026-05-04 22:38 24.23798 -150.07402 38132 ft 434 kts 245°
2026-05-04 22:38 24.21025 -150.13271 38131 ft 433 kts 245°
2026-05-04 22:39 24.18250 -150.19136 38131 ft 433 kts 245°
2026-05-04 22:39 24.15491 -150.24960 38131 ft 433 kts 245°
2026-05-04 22:40 24.12713 -150.30815 38130 ft 433 kts 245°
2026-05-04 22:40 24.09957 -150.36621 38130 ft 433 kts 245°
2026-05-04 22:41 24.07180 -150.42461 38129 ft 434 kts 245°
2026-05-04 22:41 24.04391 -150.48318 38128 ft 434 kts 245°
2026-05-04 22:42 24.01596 -150.54181 38128 ft 434 kts 245°
2026-05-04 22:42 23.98821 -150.59998 38127 ft 434 kts 245°
2026-05-04 22:43 23.96026 -150.65846 38124 ft 434 kts 245°
2026-05-04 22:43 23.93243 -150.71663 38125 ft 434 kts 245°
2026-05-04 22:44 23.90443 -150.77507 38131 ft 434 kts 245°
2026-05-04 22:44 23.87652 -150.83328 38139 ft 434 kts 245°
2026-05-04 22:45 23.84856 -150.89153 38136 ft 434 kts 245°
2026-05-04 22:45 23.80651 -150.97896 38132 ft 433 kts 245°
2026-05-04 22:46 23.77846 -151.03720 38132 ft 433 kts 245°
2026-05-04 22:46 23.75040 -151.09540 38131 ft 433 kts 245°
2026-05-04 22:47 23.72250 -151.15318 38131 ft 433 kts 245°
2026-05-04 22:47 23.69448 -151.21114 38130 ft 433 kts 245°
2026-05-04 22:48 23.66646 -151.26904 38129 ft 433 kts 245°
2026-05-04 22:48 23.63823 -151.32732 38128 ft 433 kts 245°
2026-05-04 22:49 23.61029 -151.38492 38128 ft 433 kts 245°
2026-05-04 22:49 23.58224 -151.44267 38127 ft 433 kts 245°
2026-05-04 22:50 23.55403 -151.50067 38126 ft 433 kts 245°
2026-05-04 22:50 23.52572 -151.55881 38125 ft 433 kts 245°
2026-05-04 22:51 23.49761 -151.61649 38124 ft 433 kts 245°
2026-05-04 22:51 23.46931 -151.67448 38134 ft 433 kts 244°
2026-05-04 22:52 23.44101 -151.73241 38136 ft 433 kts 244°
2026-05-04 22:52 23.41276 -151.79016 38135 ft 433 kts 244°
2026-05-04 22:53 23.38449 -151.84790 38133 ft 433 kts 244°
2026-05-04 22:53 23.35608 -151.90584 38132 ft 434 kts 244°
2026-05-04 22:54 23.32789 -151.96326 38131 ft 434 kts 244°
2026-05-04 22:54 23.29939 -152.02125 38130 ft 434 kts 244°
2026-05-04 22:55 23.27098 -152.07899 38128 ft 434 kts 244°
2026-05-04 22:55 23.24264 -152.13652 38127 ft 434 kts 244°
2026-05-04 22:56 23.21413 -152.19432 38127 ft 434 kts 244°
2026-05-04 22:56 23.18564 -152.25201 38126 ft 434 kts 244°
2026-05-04 22:57 23.15725 -152.30946 38125 ft 434 kts 244°
2026-05-04 22:57 23.12868 -152.36717 38125 ft 434 kts 244°
2026-05-04 22:58 23.10007 -152.42493 38124 ft 434 kts 244°
2026-05-04 22:58 23.07138 -152.48276 38123 ft 434 kts 244°
2026-05-04 22:59 23.04278 -152.54034 38122 ft 435 kts 244°
2026-05-04 22:59 23.01401 -152.59814 38121 ft 435 kts 244°
2026-05-04 23:00 22.98511 -152.65578 38123 ft 435 kts 244°
2026-05-04 23:00 22.95627 -152.71324 38133 ft 435 kts 244°
2026-05-04 23:01 22.92734 -152.77081 38133 ft 435 kts 244°
2026-05-04 23:01 22.89836 -152.82843 38133 ft 435 kts 244°
2026-05-04 23:02 22.86937 -152.88605 38129 ft 435 kts 244°
2026-05-04 23:02 22.84041 -152.94348 38122 ft 435 kts 244°
2026-05-04 23:03 22.81140 -153.00096 38117 ft 435 kts 244°
2026-05-04 23:03 22.78237 -153.05843 38116 ft 436 kts 244°
2026-05-04 23:04 22.75315 -153.11616 38115 ft 436 kts 244°
2026-05-04 23:04 22.72407 -153.17360 38115 ft 436 kts 244°
2026-05-04 23:05 22.69484 -153.23128 38114 ft 436 kts 244°
2026-05-04 23:05 22.66568 -153.28871 38113 ft 436 kts 244°
2026-05-04 23:06 22.63656 -153.34602 38112 ft 436 kts 244°
2026-05-04 23:06 22.60725 -153.40367 38111 ft 437 kts 244°
2026-05-04 23:07 22.57808 -153.46095 38110 ft 437 kts 244°
2026-05-04 23:07 22.54871 -153.51857 38109 ft 437 kts 244°
2026-05-04 23:08 22.51939 -153.57602 38109 ft 437 kts 244°
2026-05-04 23:08 22.48999 -153.63358 38108 ft 437 kts 244°
2026-05-04 23:09 22.46068 -153.69087 38118 ft 437 kts 243°
2026-05-04 23:09 22.43125 -153.74835 38119 ft 437 kts 243°
2026-05-04 23:10 22.40183 -153.80572 38117 ft 437 kts 243°
2026-05-04 23:10 22.37265 -153.86356 38108 ft 436 kts 247°
2026-05-04 23:11 22.35419 -153.92551 38108 ft 434 kts 258°
2026-05-04 23:11 22.34152 -153.98943 38106 ft 434 kts 258°
2026-05-04 23:12 22.32886 -154.05309 38106 ft 434 kts 258°
2026-05-04 23:12 22.31616 -154.11659 38104 ft 434 kts 258°
2026-05-04 23:13 22.30332 -154.18057 38104 ft 434 kts 258°
2026-05-04 23:13 22.29055 -154.24397 38108 ft 434 kts 258°
2026-05-04 23:14 22.27776 -154.30736 38110 ft 434 kts 258°
2026-05-04 23:14 22.26486 -154.37118 38108 ft 434 kts 258°
2026-05-04 23:15 22.25203 -154.43446 38106 ft 434 kts 258°
2026-05-04 23:15 22.23907 -154.49832 38106 ft 434 kts 258°
2026-05-04 23:16 22.22616 -154.56172 38105 ft 434 kts 258°
2026-05-04 23:16 22.21325 -154.62501 38104 ft 434 kts 258°
2026-05-04 23:17 22.20022 -154.68875 38115 ft 434 kts 258°
2026-05-04 23:17 22.18721 -154.75227 38115 ft 434 kts 258°
2026-05-04 23:18 22.17422 -154.81555 38115 ft 433 kts 258°
2026-05-04 23:18 22.16122 -154.87874 38114 ft 433 kts 258°
2026-05-04 23:19 22.14815 -154.94220 38113 ft 433 kts 258°
2026-05-04 23:19 22.13512 -155.00529 38112 ft 433 kts 258°
2026-05-04 23:20 22.12194 -155.06895 38111 ft 433 kts 258°
2026-05-04 23:20 22.10884 -155.13211 38110 ft 433 kts 258°
2026-05-04 23:21 22.09570 -155.19534 38109 ft 433 kts 258°
2026-05-04 23:21 22.08253 -155.25858 38107 ft 433 kts 258°
2026-05-04 23:22 22.06935 -155.32175 38105 ft 433 kts 258°
2026-05-04 23:22 22.05612 -155.38501 38104 ft 433 kts 258°
2026-05-04 23:23 22.04290 -155.44817 38103 ft 433 kts 258°
2026-05-04 23:23 22.02958 -155.51157 38103 ft 433 kts 258°
2026-05-04 23:24 22.01636 -155.57442 38102 ft 434 kts 258°
2026-05-04 23:24 22.00298 -155.63791 38102 ft 434 kts 258°
2026-05-04 23:25 21.98961 -155.70120 38124 ft 434 kts 258°
2026-05-04 23:25 21.97616 -155.76474 38159 ft 434 kts 258°
2026-05-04 23:26 21.96280 -155.82776 38189 ft 434 kts 258°
2026-05-04 23:26 21.94928 -155.89140 38187 ft 434 kts 258°
2026-05-04 23:27 21.93584 -155.95454 38178 ft 434 kts 258°
2026-05-04 23:27 21.92235 -156.01776 38172 ft 434 kts 258°
2026-05-04 23:28 21.91567 -156.04904 37870 ft 429 kts 258°
2026-05-04 23:28 21.90901 -156.08017 37242 ft 432 kts 258°
2026-05-04 23:28 21.90223 -156.11186 36489 ft 438 kts 258°
2026-05-04 23:28 21.89534 -156.14403 35704 ft 444 kts 258°
2026-05-04 23:29 21.88836 -156.17659 34776 ft 448 kts 258°
2026-05-04 23:29 21.88142 -156.20892 33837 ft 448 kts 258°
2026-05-04 23:29 21.87441 -156.24152 32964 ft 447 kts 258°
2026-05-04 23:29 21.86741 -156.27406 32118 ft 445 kts 258°
2026-05-04 23:30 21.86051 -156.30612 31306 ft 443 kts 258°
2026-05-04 23:30 21.85352 -156.33858 30555 ft 440 kts 258°
2026-05-04 23:30 21.84677 -156.36992 30086 ft 431 kts 258°
2026-05-04 23:30 21.83995 -156.40158 29625 ft 439 kts 258°
2026-05-04 23:31 21.83297 -156.43398 29155 ft 453 kts 258°
2026-05-04 23:31 21.82585 -156.46698 28683 ft 451 kts 258°
2026-05-04 23:31 21.81881 -156.49953 28175 ft 446 kts 258°
2026-05-04 23:31 21.81185 -156.53166 27650 ft 442 kts 258°
2026-05-04 23:32 21.80491 -156.56367 27104 ft 438 kts 258°
2026-05-04 23:32 21.79800 -156.59552 26543 ft 435 kts 258°
2026-05-04 23:32 21.79116 -156.62705 25998 ft 433 kts 258°
2026-05-04 23:32 21.78439 -156.65820 25462 ft 431 kts 258°
2026-05-04 23:33 21.77757 -156.68961 24912 ft 429 kts 258°
2026-05-04 23:33 21.77089 -156.72032 24369 ft 427 kts 258°
2026-05-04 23:33 21.76410 -156.75146 23812 ft 425 kts 258°
2026-05-04 23:33 21.75738 -156.78224 23258 ft 422 kts 258°
2026-05-04 23:34 21.75074 -156.81268 22713 ft 420 kts 258°
2026-05-04 23:34 21.74404 -156.84334 22156 ft 418 kts 258°
2026-05-04 23:34 21.73742 -156.87360 21599 ft 416 kts 258°
2026-05-04 23:34 21.73081 -156.90381 21043 ft 413 kts 258°
2026-05-04 23:35 21.72432 -156.93339 20499 ft 411 kts 258°
2026-05-04 23:35 21.71775 -156.96335 19944 ft 408 kts 258°
2026-05-04 23:35 21.71130 -156.99280 19388 ft 405 kts 257°
2026-05-04 23:35 21.70492 -157.02185 18826 ft 402 kts 257°
2026-05-04 23:36 21.69850 -157.05104 18258 ft 399 kts 257°
2026-05-04 23:36 21.69211 -157.08005 17700 ft 396 kts 257°
2026-05-04 23:36 21.68593 -157.10812 17476 ft 383 kts 257°
2026-05-04 23:36 21.67988 -157.13553 17363 ft 367 kts 257°
2026-05-04 23:37 21.67412 -157.16157 17226 ft 354 kts 257°
2026-05-04 23:37 21.66544 -157.18582 17065 ft 342 kts 240°
2026-05-04 23:37 21.65201 -157.20656 16850 ft 344 kts 234°
2026-05-04 23:37 21.63696 -157.22704 16542 ft 348 kts 232°
2026-05-04 23:38 21.62162 -157.24712 16250 ft 344 kts 231°
2026-05-04 23:38 21.60654 -157.26666 15979 ft 341 kts 231°
2026-05-04 23:38 21.59138 -157.28618 15701 ft 340 kts 231°
2026-05-04 23:38 21.57607 -157.30586 15416 ft 338 kts 231°
2026-05-04 23:39 21.56113 -157.32501 15133 ft 337 kts 231°
2026-05-04 23:39 21.54600 -157.34439 14842 ft 335 kts 231°
2026-05-04 23:39 21.53119 -157.36337 14552 ft 333 kts 231°
2026-05-04 23:39 21.51614 -157.38264 14257 ft 332 kts 231°
2026-05-04 23:40 21.50146 -157.40143 13969 ft 330 kts 231°
2026-05-04 23:40 21.48661 -157.42044 13690 ft 328 kts 231°
2026-05-04 23:40 21.47200 -157.43913 13427 ft 323 kts 231°
2026-05-04 23:40 21.45777 -157.45729 13145 ft 318 kts 231°
2026-05-04 23:41 21.44360 -157.47539 12865 ft 312 kts 231°
2026-05-04 23:41 21.42985 -157.49300 12607 ft 306 kts 231°
2026-05-04 23:41 21.41710 -157.51126 12345 ft 300 kts 242°
2026-05-04 23:41 21.40840 -157.53119 12112 ft 296 kts 247°
2026-05-04 23:42 21.40053 -157.55182 11865 ft 295 kts 248°
2026-05-04 23:42 21.39293 -157.57196 11621 ft 294 kts 248°
2026-05-04 23:42 21.38520 -157.59233 11375 ft 293 kts 248°
2026-05-04 23:42 21.37755 -157.61244 11132 ft 292 kts 248°
2026-05-04 23:43 21.36988 -157.63252 10895 ft 291 kts 247°
2026-05-04 23:43 21.36228 -157.65245 10660 ft 290 kts 247°
2026-05-04 23:43 21.35474 -157.67223 10423 ft 285 kts 247°
2026-05-04 23:43 21.34729 -157.69176 10188 ft 281 kts 247°
2026-05-04 23:44 21.33994 -157.71100 9946 ft 277 kts 247°
2026-05-04 23:44 21.33267 -157.73001 9667 ft 276 kts 246°
2026-05-04 23:44 21.32536 -157.74915 9387 ft 275 kts 246°
2026-05-04 23:44 21.31815 -157.76793 9141 ft 273 kts 246°
2026-05-04 23:45 21.31085 -157.78694 8925 ft 274 kts 246°
2026-05-04 23:45 21.30366 -157.80562 8707 ft 274 kts 246°
2026-05-04 23:45 21.29639 -157.82448 8479 ft 270 kts 246°
2026-05-04 23:45 21.28934 -157.84283 8254 ft 267 kts 246°
2026-05-04 23:46 21.28227 -157.86124 8002 ft 263 kts 245°
2026-05-04 23:46 21.27459 -157.87883 7724 ft 260 kts 242°
2026-05-04 23:46 21.26652 -157.89622 7447 ft 259 kts 242°
2026-05-04 23:46 21.25869 -157.91338 7186 ft 258 kts 242°
2026-05-04 23:47 21.25084 -157.93072 6942 ft 258 kts 243°
2026-05-04 23:47 21.24304 -157.94809 6694 ft 258 kts 244°
2026-05-04 23:47 21.23854 -157.96652 6429 ft 258 kts 264°
2026-05-04 23:47 21.23797 -157.98575 6174 ft 257 kts 269°
2026-05-04 23:48 21.23801 -158.00476 5942 ft 254 kts 269°
2026-05-04 23:48 21.23812 -158.02321 5898 ft 242 kts 269°
2026-05-04 23:48 21.23816 -158.04086 5877 ft 236 kts 269°
2026-05-04 23:48 21.23802 -158.05859 5817 ft 238 kts 268°
2026-05-04 23:49 21.23789 -158.07642 5753 ft 238 kts 269°
2026-05-04 23:49 21.23780 -158.09416 5700 ft 239 kts 269°
2026-05-04 23:49 21.23793 -158.11179 5624 ft 238 kts 270°
2026-05-04 23:49 21.23800 -158.12924 5563 ft 227 kts 270°
2026-05-04 23:50 21.23806 -158.14560 5493 ft 216 kts 269°
2026-05-04 23:50 21.23804 -158.16144 5448 ft 213 kts 269°
2026-05-04 23:50 21.23793 -158.17750 5379 ft 214 kts 270°
2026-05-04 23:50 21.23839 -158.19351 5314 ft 215 kts 282°
2026-05-04 23:51 21.24462 -158.20773 5242 ft 213 kts 312°
2026-05-04 23:51 21.25664 -158.21655 5172 ft 211 kts 343°
2026-05-04 23:51 21.27110 -158.21905 5131 ft 209 kts 358°
2026-05-04 23:51 21.28581 -158.21964 5081 ft 209 kts
2026-05-04 23:52 21.30026 -158.21968 5025 ft 208 kts
2026-05-04 23:52 21.31380 -158.21513 4954 ft 203 kts 39°
2026-05-04 23:52 21.32233 -158.20332 4834 ft 203 kts 71°
2026-05-04 23:52 21.32477 -158.18861 4533 ft 205 kts 87°
2026-05-04 23:53 21.32513 -158.17320 4231 ft 207 kts 90°
2026-05-04 23:53 21.32513 -158.15779 3945 ft 200 kts 90°
2026-05-04 23:53 21.32511 -158.14359 3689 ft 187 kts 90°
2026-05-04 23:53 21.32513 -158.12994 3449 ft 176 kts 90°
2026-05-04 23:54 21.32514 -158.11734 3239 ft 166 kts 90°
2026-05-04 23:54 21.32515 -158.10518 3037 ft 158 kts 90°
2026-05-04 23:54 21.32517 -158.09343 2830 ft 153 kts 89°
2026-05-04 23:54 21.32536 -158.08254 2649 ft 142 kts 89°
2026-05-04 23:55 21.32535 -158.07210 2470 ft 140 kts 90°
2026-05-04 23:55 21.32528 -158.06163 2271 ft 140 kts 89°
2026-05-04 23:55 21.32528 -158.04099 1879 ft 139 kts 89°
2026-05-04 23:56 21.32528 -158.03062 1679 ft 140 kts 89°
2026-05-04 23:56 21.32526 -158.02008 1477 ft 140 kts 89°
2026-05-04 23:56 21.32528 -158.00969 1286 ft 141 kts 90°
2026-05-04 23:56 21.32527 -157.99924 1091 ft 142 kts 90°
2026-05-04 23:57 21.32528 -157.98862 892 ft 141 kts 90°
2026-05-04 23:57 21.32527 -157.97827 702 ft 138 kts 90°
2026-05-04 23:57 21.32527 -157.96806 517 ft 137 kts 90°
2026-05-04 23:57 21.32526 -157.95798 336 ft 135 kts 91°
2026-05-04 23:58 21.32525 -157.94795 155 ft 134 kts 91°
2026-05-04 23:58 21.32515 -157.93823 37 ft 120 kts 88°
2026-05-04 23:58 21.32523 -157.93062 37 ft 84 kts 89°
2026-05-04 23:58 21.32525 -157.92570 43 ft 34 kts 89°
2026-05-04 23:59 21.32526 -157.92372 43 ft 16 kts 88°
2026-05-04 23:59 21.32561 -157.92256 43 ft 18 kts 61°
2026-05-04 23:59 21.32618 -157.92146 41 ft 17 kts 60°
2026-05-04 23:59 21.32672 -157.92047 41 ft 16 kts 59°
2026-05-05 00:00 21.32731 -157.91939 42 ft 10 kts 59°
2026-05-05 00:00 21.32745 -157.91917 42 ft 11 kts 55°
2026-05-05 00:00 21.32773 -157.91742 41 ft 17 kts 90°
2026-05-05 00:00 21.32773 -157.91679 41 ft 4 kts 90°
2026-05-05 00:01 21.32787 -157.91655 42 ft 3 kts 27°
2026-05-05 00:01 21.32811 -157.91649 43 ft 3 kts
2026-05-05 00:01 21.32838 -157.91649 44 ft 5 kts
2026-05-05 00:01 21.32867 -157.91649 45 ft 2 kts
2026-05-05 00:02 21.32870 -157.91649 45 ft 0 kts